Flag for Norway Weather past 2 weeks in Fredrikstad, Norway

Now
64 °F

Sunny.


Feels Like: 64 °F
Forecast: 51 / 69 °F
Wind: 8 mph from Southwest

Location: Rygge

Current Time: Aug 3, 2015 at 5:51:42 PM

Latest Report: Aug 3, 2015 at 4:50 PM


Visibility: 10 mi

Pressure: 30.15 "Hg

Humidity: 56%

Dew point: 48 °F

Location of FredrikstadLocation

Historic Weather in Fredrikstad — Graph

°F

Fredrikstad temperature yesterday

Maximum temperature yesterday: 64 °F (at 1:50 PM)
Minimum temperature yesterday: 50 °F (at 5:50 AM)
Average temperature yesterday: 58 °F

Past Weeks' High & Low Weather Summary

 TemperatureHumidityPressure
High72 °F (Jul 20, 2:20 PM)100% (Jul 25, 3:50 AM)30.15 "Hg (Jul 25, 3:50 AM)
Low48 °F (Jul 25, 4:50 AM)35% (Jul 23, 6:50 PM)29.39 "Hg (Jul 26, 10:20 AM)
Average59 °F78%29.68 "Hg
* Reported Jul 19 4:20 PM — Aug 3 4:50 PM, Fredrikstad, Weather by CustomWeather, © 2015

Note: Actual official high and low records may vary slightly from our data, if they occured in-between our weather recording intervals... More about our weather records

Advertising

Fredrikstad weather history for previous 24 hours

 ConditionsComfort  
Time TempWeatherWind HumidityBarometerVisibility
4:50 PM
Mon, Aug 3
64 °FSunny.8 mph56%30.15 "Hg10 mi
4:20 PM64 °FSunny.10 mph64%30.15 "Hg10 mi
3:50 PM64 °FPassing clouds.10 mph64%30.15 "HgN/A
3:20 PM64 °FPassing clouds.12 mph68%30.15 "HgN/A
2:50 PM66 °FPassing clouds.8 mph68%30.15 "HgN/A
2:20 PM66 °FPassing clouds.7 mph73%30.15 "HgN/A
1:50 PM64 °FBroken clouds.6 mph68%30.15 "HgN/A
1:20 PM64 °FScattered clouds.5 mph68%30.15 "HgN/A
12:50 PM63 °FPartly sunny.3 mph73%30.15 "HgN/A
12:20 PM61 °FPassing clouds.5 mph77%30.15 "HgN/A
11:50 AM61 °FPassing clouds.5 mph77%30.15 "HgN/A
11:20 AM61 °FPassing clouds.5 mph72%30.15 "HgN/A
10:50 AM59 °FSunny.6 mph72%30.15 "Hg10 mi
10:20 AM59 °FSunny.6 mph72%30.15 "Hg10 mi
9:50 AM57 °FPassing clouds.6 mph77%30.15 "HgN/A
9:20 AM55 °FSunny.6 mph88%30.15 "Hg10 mi
8:50 AM54 °FPassing clouds.6 mph88%30.15 "HgN/A
7:50 AM52 °FSunny.7 mph88%30.12 "Hg10 mi
6:50 AM50 °FSunny.5 mph94%30.12 "Hg10 mi
11:50 PM
Sun, Aug 2
55 °FClear.6 mph88%30.07 "Hg10 mi
11:20 PM55 °FClear.2 mph88%30.07 "Hg10 mi
10:50 PM57 °FClear.6 mph88%30.07 "Hg10 mi
10:20 PM57 °FSunny.6 mph88%30.04 "Hg10 mi
9:50 PM57 °FSunny.7 mph88%30.04 "Hg10 mi
9:20 PM59 °FSunny.6 mph88%30.04 "Hg10 mi
8:50 PM61 °FSunny.9 mph83%30.04 "Hg10 mi
8:20 PM61 °FSunny.10 mph77%30.01 "Hg10 mi
7:50 PM61 °FSunny.12 mph77%30.01 "Hg10 mi
7:20 PM61 °FSunny.13 mph72%30.01 "Hg10 mi
6:50 PM63 °FSunny.13 mph64%30.01 "Hg10 mi
6:20 PM61 °FSunny.13 mph77%30.01 "Hg10 mi
5:50 PM63 °FScattered clouds.10 mph77%30.01 "HgN/A
5:20 PM61 °FScattered clouds.7 mph72%30.01 "HgN/A
Weather by CustomWeather, © 2015

See weather overviewHow to use our weather pages